QPF
0.00 0.01 0.00 0.00 0.01 0.02 0.02 0.02 0.03 0.04 0.04 0.04 0.03 0.03 0.04 0.05 0.07 0.09 0.08 0.06 0.05 0.06 0.09 0.12 0.13 0.12 0.10 0.09 0.08 0.10 0.10 0.10 0.10 0.12 0.13 0.12 0.11 0.11 0.10 0.08 0.08 0.09 0.12 0.13 0.07 0.08 0.09 0.10 0.09
0.00 0.01 0.01 0.01 0.02 0.02 0.01 0.02 0.04 0.05 0.05 0.04 0.02 0.03 0.04 0.06 0.08 0.08 0.07 0.07 0.07 0.09 0.10 0.10 0.11 0.10 0.09 0.09 0.08 0.10 0.10 0.12 0.13 0.14 0.13 0.11 0.11 0.10 0.08 0.07 0.07 0.08 0.13 0.12 0.07 0.06 0.08 0.10 0.10
0.01 0.02 0.03 0.03 0.02 0.02 0.01 0.03 0.04 0.03 0.04 0.03 0.02 0.03 0.07 0.12 0.10 0.09 0.08 0.11 0.13 0.10 0.09 0.09 0.09 0.08 0.08 0.10 0.10 0.12 0.12 0.13 0.14 0.12 0.10 0.09 0.11 0.12 0.10 0.07 0.08 0.11 0.14 0.10 0.10 0.09 0.09 0.09 0.10
0.01 0.02 0.03 0.03 0.02 0.01 0.02 0.03 0.04 0.03 0.03 0.02 0.02 0.03 0.06 0.08 0.06 0.08 0.09 0.09 0.07 0.07 0.07 0.07 0.07 0.06 0.06 0.08 0.11 0.14 0.15 0.14 0.13 0.11 0.09 0.09 0.11 0.12 0.12 0.10 0.11 0.12 0.10 0.10 0.11 0.09 0.10 0.09 0.08
0.01 0.01 0.02 0.02 0.01 0.01 0.01 0.01 0.02 0.03 0.04 0.04 0.04 0.05 0.07 0.07 0.05 0.05 0.05 0.05 0.05 0.06 0.07 0.07 0.06 0.05 0.04 0.05 0.08 0.13 0.15 0.14 0.14 0.15 0.19 0.13 0.15 0.14 0.12 0.12 0.13 0.12 0.11 0.10 0.08 0.07 0.07 0.09 0.08
0.01 0.01 0.02 0.01 0.01 0.01 0.01 0.01 0.02 0.02 0.03 0.04 0.05 0.07 0.08 0.07 0.05 0.05 0.05 0.05 0.05 0.06 0.07 0.07 0.05 0.06 0.05 0.04 0.05 0.08 0.10 0.11 0.12 0.17 0.20 0.17 0.13 0.13 0.13 0.11 0.10 0.12 0.10 0.07 0.06 0.04 0.04 0.09 0.10
0.01 0.01 0.01 0.01 0.01 0.01 0.01 0.01 0.01 0.02 0.03 0.04 0.06 0.07 0.09 0.08 0.08 0.08 0.05 0.04 0.06 0.06 0.05 0.06 0.06 0.07 0.06 0.04 0.05 0.08 0.08 0.08 0.10 0.13 0.13 0.14 0.13 0.13 0.13 0.10 0.09 0.09 0.08 0.05 0.04 0.03 0.03 0.06 0.10
0.01 0.01 0.00 0.00 0.01 0.01 0.01 0.01 0.01 0.02 0.03 0.04 0.06 0.07 0.09 0.08 0.08 0.07 0.05 0.05 0.06 0.05 0.04 0.04 0.05 0.07 0.07 0.06 0.06 0.08 0.08 0.07 0.08 0.10 0.10 0.11 0.11 0.11 0.10 0.07 0.08 0.09 0.08 0.05 0.04 0.03 0.03 0.04 0.06
0.01 0.01 0.01 0.01 0.01 0.01 0.01 0.01 0.01 0.01 0.03 0.05 0.07 0.06 0.07 0.06 0.05 0.04 0.04 0.05 0.06 0.04 0.03 0.03 0.03 0.04 0.05 0.05 0.04 0.06 0.06 0.05 0.07 0.09 0.07 0.08 0.08 0.08 0.10 0.10 0.10 0.08 0.07 0.06 0.05 0.03 0.03 0.03 0.05
0.01 0.00 0.01 0.00 0.00 0.00 0.00 0.01 0.01 0.01 0.02 0.04 0.05 0.05 0.05 0.05 0.04 0.03 0.03 0.03 0.02 0.02 0.02 0.03 0.02 0.04 0.03 0.02 0.03 0.04 0.04 0.06 0.07 0.08 0.05 0.07 0.09 0.08 0.08 0.08 0.08 0.07 0.07 0.06 0.05 0.03 0.03 0.03 0.05
0.01 0.01 0.00 0.00 0.00 0.00 0.00 0.01 0.01 0.01 0.02 0.03 0.04 0.05 0.04 0.04 0.03 0.03 0.03 0.02 0.02 0.02 0.02 0.02 0.02 0.02 0.03 0.03 0.02 0.04 0.04 0.06 0.06 0.06 0.05 0.07 0.08 0.10 0.08 0.07 0.06 0.07 0.06 0.06 0.06 0.04 0.02 0.02 0.04
0.00 0.00 0.00 0.00 0.00 0.00 0.00 0.01 0.01 0.01 0.02 0.02 0.03 0.02 0.03 0.03 0.03 0.02 0.03 0.03 0.02 0.02 0.02 0.02 0.01 0.02 0.03 0.03 0.02 0.03 0.03 0.04 0.05 0.05 0.05 0.06 0.07 0.08 0.06 0.05 0.04 0.06 0.07 0.07 0.06 0.04 0.02 0.03 0.03
0.00 0.00 0.00 0.00 0.00 0.00 0.00 0.00 0.01 0.01 0.01 0.01 0.01 0.01 0.02 0.03 0.03 0.05 0.04 0.03 0.02 0.02 0.02 0.01 0.02 0.02 0.03 0.04 0.04 0.03 0.04 0.04 0.04 0.04 0.03 0.04 0.05 0.05 0.04 0.04 0.05 0.06 0.06 0.06 0.06 0.04 0.03 0.04 0.04
0.00 0.00 0.00 0.00 0.00 0.00 0.00 0.01 0.01 0.02 0.01 0.01 0.01 0.02 0.03 0.03 0.03 0.03 0.03 0.04 0.04 0.02 0.01 0.01 0.02 0.01 0.01 0.02 0.04 0.05 0.04 0.06 0.05 0.04 0.04 0.05 0.06 0.05 0.04 0.03 0.06 0.07 0.08 0.07 0.06 0.05 0.04 0.04 0.05
0.00 0.00 0.00 0.00 0.00 0.00 0.00 0.00 0.00 0.01 0.02 0.02 0.02 0.03 0.03 0.02 0.01 0.01 0.01 0.01 0.02 0.02 0.01 0.02 0.01 0.01 0.02 0.01 0.02 0.03 0.03 0.04 0.05 0.04 0.05 0.05 0.05 0.05 0.04 0.04 0.07 0.08 0.08 0.08 0.07 0.06 0.03 0.03 0.04
0.00 0.00 0.00 0.00 0.00 0.00 0.00 0.01 0.00 0.00 0.01 0.01 0.01 0.02 0.01 0.01 0.01 0.01 0.01 0.01 0.01 0.01 0.02 0.01 0.01 0.01 0.02 0.03 0.04 0.03 0.03 0.04 0.04 0.04 0.04 0.04 0.03 0.04 0.05 0.07 0.09 0.09 0.07 0.08 0.07 0.06 0.03 0.03 0.03
0.01 0.01 0.00 0.00 0.00 0.00 0.00 0.00 0.00 0.00 0.00 0.00 0.00 0.00 0.00 0.01 0.01 0.01 0.02 0.02 0.02 0.02 0.02 0.01 0.01 0.01 0.01 0.02 0.03 0.04 0.04 0.05 0.04 0.04 0.03 0.03 0.02 0.03 0.04 0.07 0.11 0.10 0.07 0.06 0.04 0.04 0.04 0.04 0.04
0.01 0.01 0.00 0.00 0.00 0.00 0.00 0.00 0.00 0.00 0.00 0.00 0.00 0.00 0.00 0.00 0.01 0.01 0.02 0.03 0.02 0.03 0.02 0.02 0.01 0.01 0.02 0.02 0.03 0.03 0.04 0.04 0.04 0.04 0.04 0.03 0.03 0.03 0.04 0.06 0.08 0.07 0.07 0.07 0.06 0.06 0.05 0.04 0.03
0.00 0.01 0.00 0.00 0.00 0.00 0.00 0.00 0.00 0.00 0.00 0.00 0.00 0.00 0.00 0.00 0.00 0.00 0.01 0.01 0.02 0.02 0.03 0.04 0.04 0.03 0.03 0.03 0.04 0.05 0.05 0.06 0.05 0.04 0.04 0.05 0.04 0.05 0.06 0.06 0.06 0.07 0.08 0.07 0.07 0.06 0.05 0.05 0.04
0.00 0.01 0.01 0.01 0.00 0.00 0.00 0.00 0.00 0.00 0.00 0.00 0.00 0.00 0.00 0.00 0.00 0.00 0.00 0.00 0.00 0.01 0.02 0.02 0.04 0.03 0.02 0.02 0.03 0.03 0.03 0.04 0.04 0.03 0.04 0.04 0.04 0.05 0.05 0.06 0.07 0.08 0.09 0.09 0.08 0.06 0.06 0.07 0.07
0.00 0.01 0.02 0.01 0.01 0.00 0.00 0.00 0.00 0.00 0.00 0.00 0.00 0.00 0.00 0.00 0.00 0.00 0.00 0.00 0.00 0.00 0.00 0.01 0.02 0.02 0.02 0.02 0.02 0.02 0.03 0.03 0.04 0.05 0.05 0.06 0.05 0.05 0.05 0.06 0.08 0.09 0.08 0.10 0.10 0.07 0.07 0.08 0.07
0.00 0.00 0.01 0.00 0.01 0.01 0.00 0.00 0.00 0.00 0.00 0.00 0.00 0.00 0.00 0.00 0.00 0.00 0.00 0.00 0.00 0.01 0.00 0.00 0.01 0.01 0.01 0.02 0.02 0.03 0.04 0.04 0.05 0.04 0.04 0.04 0.03 0.03 0.04 0.05 0.05 0.07 0.07 0.09 0.08 0.07 0.07 0.08 0.09
0.01 0.00 0.00 0.00 0.02 0.01 0.00 0.00 0.00 0.00 0.00 0.00 0.00 0.00 0.00 0.00 0.00 0.00 0.00 0.00 0.00 0.00 0.01 0.00 0.01 0.00 0.01 0.02 0.03 0.03 0.03 0.04 0.05 0.05 0.05 0.04 0.03 0.03 0.03 0.04 0.04 0.05 0.06 0.07 0.06 0.06 0.06 0.07 0.08
0.00 0.00 0.00 0.01 0.01 0.01 0.00 0.00 0.00 0.00 0.00 0.00 0.00 0.00 0.00 0.00 0.00 0.00 0.00 0.00 0.00 0.00 0.00 0.01 0.01 0.00 0.01 0.01 0.02 0.03 0.04 0.05 0.05 0.05 0.04 0.03 0.02 0.02 0.02 0.03 0.04 0.05 0.05 0.06 0.05 0.06 0.07 0.07 0.06
0.00 0.01 0.01 0.01 0.02 0.01 0.00 0.00 0.00 0.00 0.00 0.00 0.00 0.00 0.00 0.00 0.00 0.00 0.00 0.00 0.00 0.00 0.00 0.01 0.01 0.01 0.01 0.00 0.01 0.02 0.03 0.04 0.04 0.03 0.03 0.02 0.02 0.01 0.01 0.03 0.05 0.05 0.04 0.05 0.05 0.06 0.06 0.07 0.06
0.01 0.01 0.01 0.01 0.01 0.01 0.00 0.00 0.00 0.00 0.00 0.00 0.00 0.00 0.00 0.00 0.00 0.00 0.00 0.00 0.00 0.00 0.00 0.00 0.01 0.02 0.02 0.01 0.02 0.01 0.02 0.02 0.03 0.03 0.02 0.02 0.01 0.01 0.02 0.03 0.04 0.03 0.03 0.03 0.03 0.03 0.03 0.04 0.05
0.00 0.00 0.00 0.00 0.01 0.01 0.01 0.00 0.00 0.00 0.00 0.00 0.00 0.00 0.00 0.00 0.00 0.00 0.00 0.00 0.00 0.00 0.00 0.00 0.01 0.01 0.02 0.02 0.02 0.02 0.01 0.01 0.01 0.02 0.02 0.01 0.01 0.01 0.01 0.02 0.02 0.02 0.02 0.03 0.03 0.02 0.03 0.04 0.04
0.00 0.00 0.00 0.01 0.01 0.02 0.01 0.00 0.00 0.00 0.00 0.00 0.00 0.00 0.00 0.00 0.00 0.00 0.00 0.00 0.00 0.00 0.00 0.00 0.00 0.01 0.02 0.01 0.01 0.01 0.01 0.00 0.01 0.01 0.02 0.01 0.01 0.01 0.01 0.02 0.03 0.04 0.05 0.05 0.04 0.02 0.02 0.03 0.03
0.00 0.00 0.00 0.01 0.01 0.01 0.02 0.00 0.00 0.00 0.00 0.00 0.00 0.00 0.00 0.00 0.00 0.00 0.00 0.00 0.00 0.01 0.00 0.00 0.00 0.00 0.01 0.01 0.01 0.02 0.01 0.01 0.01 0.01 0.01 0.01 0.01 0.01 0.01 0.02 0.03 0.05 0.04 0.04 0.04 0.02 0.02 0.03 0.03
0.00 0.00 0.00 0.01 0.01 0.01 0.01 0.00 0.00 0.00 0.00 0.00 0.00 0.00 0.00 0.00 0.00 0.00 0.00 0.01 0.01 0.01 0.00 0.00 0.00 0.00 0.00 0.00 0.00 0.01 0.02 0.02 0.01 0.01 0.01 0.01 0.01 0.01 0.01 0.01 0.04 0.05 0.04 0.04 0.04 0.02 0.02 0.02 0.02
MSLP
1009.99 1010.65 1011.40 1012.10 1012.63 1012.90 1012.91 1012.69 1012.34 1011.98 1011.72 1011.61 1011.65 1011.79 1011.96 1012.07 1012.07 1011.94 1011.72 1011.46 1011.24 1011.11 1011.09 1011.14 1011.21 1011.24 1011.20 1011.06 1010.86 1010.60 1010.34 1010.06 1009.75 1009.37 1008.89 1008.28 1007.57 1006.83 1006.17 1005.66 1005.30 1005.01 1004.59 1003.77 1002.25 999.82 996.39 992.12 987.41
1010.24 1010.97 1011.75 1012.43 1012.91 1013.12 1013.04 1012.73 1012.30 1011.88 1011.57 1011.42 1011.44 1011.58 1011.75 1011.87 1011.88 1011.77 1011.58 1011.37 1011.20 1011.11 1011.13 1011.22 1011.33 1011.39 1011.37 1011.25 1011.05 1010.79 1010.52 1010.23 1009.90 1009.49 1008.98 1008.33 1007.59 1006.83 1006.15 1005.63 1005.28 1005.03 1004.69 1004.01 1002.69 1000.52 997.42 993.52 989.19
1010.57 1011.34 1012.10 1012.74 1013.16 1013.28 1013.13 1012.77 1012.30 1011.85 1011.52 1011.36 1011.37 1011.49 1011.65 1011.75 1011.74 1011.63 1011.44 1011.24 1011.09 1011.04 1011.10 1011.23 1011.37 1011.47 1011.47 1011.37 1011.18 1010.94 1010.66 1010.37 1010.04 1009.63 1009.11 1008.46 1007.72 1006.95 1006.25 1005.71 1005.37 1005.15 1004.92 1004.42 1003.41 1001.67 999.12 995.85 992.18
1010.93 1011.67 1012.39 1012.96 1013.29 1013.36 1013.16 1012.77 1012.30 1011.88 1011.57 1011.44 1011.46 1011.57 1011.69 1011.75 1011.70 1011.54 1011.32 1011.10 1010.96 1010.92 1011.00 1011.16 1011.34 1011.46 1011.50 1011.42 1011.24 1011.00 1010.74 1010.45 1010.14 1009.76 1009.27 1008.66 1007.94 1007.18 1006.48 1005.93 1005.57 1005.38 1005.24 1004.94 1004.27 1003.04 1001.14 998.64 995.78
1011.24 1011.92 1012.54 1013.02 1013.28 1013.29 1013.08 1012.71 1012.30 1011.94 1011.71 1011.63 1011.68 1011.79 1011.88 1011.89 1011.78 1011.55 1011.27 1011.01 1010.84 1010.79 1010.87 1011.05 1011.24 1011.39 1011.44 1011.37 1011.20 1010.97 1010.72 1010.45 1010.17 1009.84 1009.42 1008.88 1008.23 1007.52 1006.83 1006.27 1005.89 1005.69 1005.60 1005.46 1005.10 1004.34 1003.08 1001.36 999.32
1011.44 1012.02 1012.53 1012.90 1013.08 1013.06 1012.86 1012.56 1012.24 1011.99 1011.87 1011.88 1011.98 1012.11 1012.18 1012.14 1011.96 1011.66 1011.31 1010.99 1010.77 1010.69 1010.76 1010.93 1011.12 1011.27 1011.32 1011.26 1011.09 1010.86 1010.61 1010.37 1010.13 1009.87 1009.54 1009.10 1008.55 1007.92 1007.27 1006.70 1006.28 1006.04 1005.94 1005.88 1005.73 1005.34 1004.62 1003.56 1002.26
1011.50 1011.96 1012.34 1012.61 1012.73 1012.69 1012.53 1012.31 1012.11 1012.00 1012.00 1012.12 1012.29 1012.45 1012.52 1012.44 1012.21 1011.85 1011.44 1011.06 1010.79 1010.68 1010.71 1010.85 1011.03 1011.17 1011.20 1011.12 1010.94 1010.70 1010.45 1010.22 1010.03 1009.84 1009.61 1009.30 1008.87 1008.34 1007.75 1007.19 1006.73 1006.42 1006.26 1006.18 1006.11 1005.94 1005.58 1005.00 1004.27
1011.44 1011.77 1012.04 1012.22 1012.28 1012.24 1012.13 1012.01 1011.94 1011.96 1012.09 1012.30 1012.55 1012.75 1012.83 1012.74 1012.48 1012.09 1011.64 1011.22 1010.92 1010.76 1010.76 1010.88 1011.02 1011.13 1011.14 1011.03 1010.82 1010.56 1010.29 1010.07 1009.91 1009.78 1009.65 1009.45 1009.15 1008.74 1008.24 1007.71 1007.22 1006.83 1006.57 1006.41 1006.32 1006.21 1006.04 1005.75 1005.38
1011.30 1011.52 1011.70 1011.81 1011.85 1011.82 1011.77 1011.74 1011.77 1011.90 1012.13 1012.42 1012.73 1012.96 1013.06 1012.99 1012.73 1012.34 1011.89 1011.46 1011.14 1010.97 1010.94 1011.02 1011.13 1011.21 1011.18 1011.04 1010.80 1010.51 1010.22 1009.98 1009.83 1009.75 1009.69 1009.59 1009.41 1009.12 1008.71 1008.24 1007.74 1007.29 1006.93 1006.67 1006.48 1006.35 1006.21 1006.05 1005.87
1011.14 1011.30 1011.42 1011.50 1011.53 1011.54 1011.53 1011.57 1011.67 1011.87 1012.15 1012.49 1012.82 1013.08 1013.21 1013.16 1012.94 1012.58 1012.16 1011.76 1011.46 1011.28 1011.23 1011.29 1011.37 1011.41 1011.36 1011.19 1010.92 1010.59 1010.27 1010.02 1009.86 1009.78 1009.76 1009.74 1009.66 1009.48 1009.18 1008.77 1008.31 1007.84 1007.41 1007.05 1006.77 1006.55 1006.38 1006.24 1006.11
1011.02 1011.17 1011.28 1011.37 1011.43 1011.46 1011.50 1011.58 1011.71 1011.92 1012.21 1012.54 1012.86 1013.12 1013.26 1013.25 1013.08 1012.79 1012.44 1012.09 1011.82 1011.66 1011.61 1011.64 1011.70 1011.72 1011.64 1011.46 1011.17 1010.83 1010.49 1010.21 1010.02 1009.94 1009.92 1009.94 1009.92 1009.83 1009.62 1009.31 1008.91 1008.47 1008.03 1007.63 1007.28 1007.00 1006.78 1006.60 1006.47
1011.01 1011.18 1011.33 1011.46 1011.56 1011.65 1011.72 1011.81 1011.93 1012.11 1012.35 1012.62 1012.89 1013.12 1013.26 1013.29 1013.18 1012.96 1012.69 1012.42 1012.20 1012.07 1012.02 1012.04 1012.08 1012.08 1012.00 1011.82 1011.54 1011.20 1010.85 1010.55 1010.33 1010.22 1010.19 1010.20 1010.22 1010.18 1010.06 1009.83 1009.52 1009.16 1008.77 1008.39 1008.04 1007.74 1007.49 1007.29 1007.15
1011.10 1011.34 1011.56 1011.76 1011.93 1012.06 1012.16 1012.24 1012.33 1012.44 1012.59 1012.76 1012.96 1013.13 1013.25 1013.30 1013.25 1013.11 1012.93 1012.74 1012.57 1012.47 1012.42 1012.43 1012.46 1012.45 1012.37 1012.20 1011.95 1011.63 1011.30 1011.00 1010.76 1010.61 1010.55 1010.53 1010.54 1010.53 1010.46 1010.32 1010.11 1009.84 1009.54 1009.24 1008.95 1008.69 1008.47 1008.29 1008.15
1011.30 1011.61 1011.92 1012.20 1012.45 1012.64 1012.76 1012.83 1012.86 1012.89 1012.92 1012.99 1013.08 1013.18 1013.27 1013.32 1013.32 1013.26 1013.16 1013.03 1012.91 1012.83 1012.78 1012.77 1012.77 1012.75 1012.69 1012.55 1012.34 1012.08 1011.78 1011.50 1011.26 1011.08 1010.97 1010.91 1010.89 1010.86 1010.82 1010.73 1010.61 1010.44 1010.25 1010.06 1009.87 1009.69 1009.54 1009.41 1009.32
1011.55 1011.94 1012.33 1012.70 1013.02 1013.26 1013.41 1013.47 1013.45 1013.39 1013.31 1013.26 1013.25 1013.28 1013.33 1013.39 1013.42 1013.42 1013.38 1013.31 1013.22 1013.14 1013.07 1013.03 1013.00 1012.97 1012.91 1012.81 1012.66 1012.46 1012.23 1011.98 1011.76 1011.56 1011.41 1011.31 1011.23 1011.17 1011.12 1011.06 1010.98 1010.90 1010.81 1010.71 1010.63 1010.55 1010.49 1010.44 1010.40
1011.82 1012.25 1012.71 1013.15 1013.54 1013.83 1014.01 1014.06 1014.00 1013.87 1013.70 1013.55 1013.45 1013.41 1013.43 1013.48 1013.55 1013.60 1013.61 1013.57 1013.51 1013.42 1013.32 1013.24 1013.17 1013.12 1013.06 1012.99 1012.89 1012.76 1012.60 1012.41 1012.21 1012.02 1011.84 1011.69 1011.56 1011.46 1011.37 1011.30 1011.25 1011.20 1011.17 1011.15 1011.14 1011.15 1011.16 1011.18 1011.20
1012.05 1012.51 1013.00 1013.49 1013.94 1014.28 1014.48 1014.54 1014.46 1014.27 1014.03 1013.81 1013.63 1013.54 1013.53 1013.60 1013.69 1013.78 1013.83 1013.83 1013.77 1013.67 1013.55 1013.42 1013.31 1013.22 1013.16 1013.11 1013.06 1012.99 1012.90 1012.77 1012.61 1012.43 1012.24 1012.05 1011.88 1011.72 1011.60 1011.50 1011.43 1011.39 1011.38 1011.39 1011.42 1011.46 1011.51 1011.58 1011.64
1012.24 1012.69 1013.19 1013.72 1014.19 1014.57 1014.80 1014.87 1014.77 1014.55 1014.26 1013.98 1013.76 1013.64 1013.62 1013.68 1013.81 1013.94 1014.03 1014.06 1014.02 1013.92 1013.77 1013.60 1013.45 1013.34 1013.27 1013.23 1013.21 1013.19 1013.15 1013.07 1012.95 1012.79 1012.60 1012.39 1012.19 1011.99 1011.83 1011.70 1011.60 1011.54 1011.51 1011.51 1011.54 1011.58 1011.64 1011.70 1011.77
1012.36 1012.80 1013.31 1013.84 1014.34 1014.74 1014.99 1015.06 1014.95 1014.70 1014.38 1014.06 1013.81 1013.65 1013.63 1013.71 1013.86 1014.03 1014.17 1014.25 1014.23 1014.14 1013.99 1013.81 1013.64 1013.51 1013.43 1013.40 1013.39 1013.40 1013.39 1013.35 1013.25 1013.11 1012.93 1012.72 1012.50 1012.29 1012.11 1011.95 1011.83 1011.74 1011.68 1011.65 1011.64 1011.65 1011.67 1011.71 1011.76
1012.45 1012.87 1013.38 1013.92 1014.44 1014.85 1015.10 1015.16 1015.04 1014.76 1014.41 1014.05 1013.75 1013.58 1013.54 1013.63 1013.81 1014.03 1014.22 1014.34 1014.38 1014.32 1014.20 1014.04 1013.87 1013.75 1013.67 1013.64 1013.64 1013.66 1013.67 1013.64 1013.55 1013.42 1013.24 1013.03 1012.82 1012.61 1012.43 1012.27 1012.15 1012.04 1011.96 1011.89 1011.84 1011.80 1011.77 1011.77 1011.78
1012.51 1012.94 1013.46 1014.02 1014.55 1014.97 1015.21 1015.25 1015.10 1014.78 1014.37 1013.96 1013.62 1013.41 1013.35 1013.44 1013.64 1013.89 1014.13 1014.32 1014.42 1014.42 1014.35 1014.24 1014.12 1014.02 1013.96 1013.94 1013.95 1013.97 1013.97 1013.94 1013.84 1013.70 1013.52 1013.32 1013.12 1012.93 1012.77 1012.64 1012.53 1012.44 1012.35 1012.27 1012.18 1012.10 1012.02 1011.97 1011.95
1012.56 1013.02 1013.58 1014.17 1014.72 1015.14 1015.37 1015.38 1015.18 1014.79 1014.32 1013.84 1013.44 1013.17 1013.08 1013.15 1013.35 1013.62 1013.91 1014.15 1014.32 1014.40 1014.41 1014.37 1014.31 1014.26 1014.24 1014.25 1014.27 1014.29 1014.28 1014.22 1014.10 1013.94 1013.75 1013.54 1013.35 1013.19 1013.06 1012.97 1012.91 1012.85 1012.78 1012.71 1012.61 1012.50 1012.40 1012.31 1012.26
1012.60 1013.13 1013.74 1014.38 1014.96 1015.38 1015.60 1015.57 1015.30 1014.85 1014.30 1013.74 1013.25 1012.92 1012.77 1012.80 1012.99 1013.27 1013.58 1013.87 1014.10 1014.26 1014.35 1014.39 1014.40 1014.42 1014.45 1014.49 1014.53 1014.54 1014.51 1014.43 1014.29 1014.10 1013.88 1013.67 1013.48 1013.34 1013.24 1013.20 1013.18 1013.16 1013.14 1013.08 1013.00 1012.90 1012.78 1012.68 1012.61
1012.61 1013.22 1013.91 1014.61 1015.22 1015.66 1015.86 1015.79 1015.47 1014.95 1014.32 1013.68 1013.12 1012.72 1012.50 1012.48 1012.63 1012.89 1013.21 1013.52 1013.79 1014.00 1014.16 1014.27 1014.35 1014.43 1014.52 1014.59 1014.65 1014.67 1014.63 1014.52 1014.35 1014.13 1013.88 1013.65 1013.46 1013.33 1013.26 1013.24 1013.26 1013.29 1013.30 1013.28 1013.22 1013.13 1013.02 1012.91 1012.84
1012.58 1013.27 1014.04 1014.80 1015.45 1015.91 1016.10 1016.02 1015.66 1015.09 1014.40 1013.70 1013.08 1012.61 1012.33 1012.26 1012.36 1012.59 1012.88 1013.18 1013.46 1013.70 1013.89 1014.04 1014.18 1014.30 1014.42 1014.53 1014.60 1014.62 1014.58 1014.46 1014.26 1014.02 1013.75 1013.50 1013.30 1013.16 1013.10 1013.10 1013.13 1013.19 1013.22 1013.22 1013.18 1013.10 1013.00 1012.90 1012.83
1012.49 1013.25 1014.08 1014.89 1015.58 1016.06 1016.26 1016.17 1015.81 1015.23 1014.52 1013.80 1013.14 1012.64 1012.32 1012.20 1012.25 1012.44 1012.68 1012.96 1013.21 1013.44 1013.62 1013.78 1013.92 1014.06 1014.19 1014.31 1014.39 1014.42 1014.37 1014.25 1014.05 1013.79 1013.52 1013.26 1013.05 1012.90 1012.83 1012.81 1012.85 1012.90 1012.93 1012.94 1012.90 1012.82 1012.73 1012.63 1012.56
1012.34 1013.13 1013.99 1014.83 1015.54 1016.05 1016.28 1016.22 1015.88 1015.33 1014.66 1013.96 1013.32 1012.83 1012.50 1012.36 1012.37 1012.51 1012.71 1012.92 1013.13 1013.30 1013.44 1013.57 1013.68 1013.79 1013.90 1014.00 1014.08 1014.10 1014.06 1013.95 1013.76 1013.52 1013.26 1013.01 1012.80 1012.64 1012.55 1012.52 1012.53 1012.55 1012.56 1012.54 1012.49 1012.40 1012.30 1012.19 1012.12
1012.14 1012.92 1013.77 1014.61 1015.33 1015.85 1016.12 1016.12 1015.85 1015.38 1014.79 1014.17 1013.61 1013.16 1012.87 1012.73 1012.73 1012.83 1012.98 1013.14 1013.27 1013.38 1013.45 1013.50 1013.54 1013.60 1013.66 1013.72 1013.76 1013.78 1013.75 1013.65 1013.50 1013.30 1013.08 1012.86 1012.67 1012.52 1012.42 1012.37 1012.34 1012.32 1012.29 1012.23 1012.14 1012.02 1011.90 1011.78 1011.69
1011.93 1012.65 1013.45 1014.25 1014.96 1015.50 1015.81 1015.88 1015.71 1015.36 1014.91 1014.42 1013.97 1013.62 1013.39 1013.29 1013.30 1013.39 1013.50 1013.60 1013.67 1013.70 1013.69 1013.66 1013.62 1013.59 1013.57 1013.57 1013.58 1013.57 1013.54 1013.48 1013.37 1013.23 1013.08 1012.92 1012.77 1012.66 1012.57 1012.50 1012.44 1012.37 1012.29 1012.19 1012.05 1011.90 1011.75 1011.62 1011.51
1011.75 1012.38 1013.09 1013.82 1014.49 1015.03 1015.38 1015.54 1015.49 1015.29 1014.99 1014.66 1014.36 1014.14 1014.00 1013.97 1014.01 1014.10 1014.19 1014.26 1014.28 1014.25 1014.17 1014.05 1013.93 1013.82 1013.72 1013.65 1013.61 1013.58 1013.55 1013.51 1013.46 1013.40 1013.32 1013.25 1013.17 1013.10 1013.04 1012.98 1012.90 1012.80 1012.68 1012.53 1012.35 1012.17 1011.99 1011.84 1011.72
Thickness
5815 5818 5818 5812 5805 5800 5788 5792 5798 5796 5796 5802 5803 5800 5793 5787 5782 5771 5789 5799 5798 5797 5794 5789 5786 5785 5784 5784 5783 5783 5783 5783 5782 5782 5781 5780 5779 5778 5777 5776 5775 5773 5772 5771 5770 5770 5769 5768 5767
5822 5821 5816 5813 5804 5788 5784 5795 5795 5796 5799 5805 5803 5800 5794 5788 5791 5789 5792 5794 5797 5796 5793 5788 5784 5783 5783 5782 5782 5782 5781 5781 5780 5780 5779 5779 5778 5776 5776 5775 5774 5773 5771 5771 5770 5769 5768 5767 5766
5824 5822 5816 5814 5801 5790 5787 5798 5798 5802 5806 5803 5798 5798 5791 5785 5789 5790 5792 5795 5795 5793 5790 5786 5783 5782 5782 5781 5781 5780 5780 5779 5779 5778 5778 5777 5776 5775 5775 5775 5773 5772 5771 5770 5769 5768 5767 5766 5765
5824 5820 5819 5811 5797 5800 5801 5804 5806 5803 5803 5805 5800 5791 5791 5792 5793 5793 5794 5795 5793 5791 5790 5785 5782 5781 5781 5780 5779 5779 5778 5778 5778 5777 5777 5776 5775 5775 5774 5773 5772 5772 5770 5769 5768 5767 5766 5765 5764
5827 5821 5812 5805 5801 5806 5812 5812 5811 5803 5798 5801 5800 5787 5783 5791 5796 5795 5794 5794 5793 5792 5790 5786 5781 5780 5779 5779 5778 5778 5777 5777 5777 5776 5776 5775 5774 5774 5773 5772 5771 5770 5769 5769 5768 5767 5766 5765 5764
5825 5824 5809 5799 5800 5808 5813 5815 5812 5805 5800 5800 5798 5787 5782 5791 5792 5793 5794 5794 5794 5792 5790 5785 5780 5779 5779 5778 5777 5777 5776 5776 5775 5775 5774 5774 5773 5773 5772 5771 5771 5769 5768 5768 5767 5766 5765 5764 5764
5822 5821 5809 5807 5803 5805 5810 5818 5811 5804 5798 5799 5801 5788 5784 5790 5793 5795 5794 5793 5793 5791 5790 5788 5785 5781 5779 5777 5777 5776 5776 5776 5775 5774 5774 5773 5773 5772 5772 5771 5770 5769 5768 5767 5766 5766 5765 5764 5763
5834 5827 5815 5812 5807 5804 5815 5816 5814 5808 5800 5807 5806 5790 5783 5789 5795 5795 5793 5792 5791 5790 5790 5788 5787 5784 5783 5781 5777 5776 5776 5775 5775 5774 5774 5774 5774 5773 5773 5772 5770 5769 5768 5767 5767 5766 5765 5764 5763
5838 5824 5812 5813 5811 5810 5818 5813 5813 5816 5808 5805 5806 5802 5797 5797 5796 5793 5790 5788 5787 5787 5788 5789 5788 5786 5784 5784 5780 5778 5776 5775 5775 5775 5774 5775 5777 5778 5775 5773 5770 5769 5768 5767 5767 5766 5765 5765 5764
5834 5820 5817 5825 5826 5821 5819 5815 5814 5811 5804 5800 5799 5800 5800 5797 5794 5791 5788 5785 5785 5785 5787 5789 5788 5787 5786 5784 5782 5781 5781 5778 5777 5776 5777 5777 5776 5777 5776 5771 5770 5769 5769 5768 5767 5767 5767 5768 5770
5835 5824 5828 5832 5833 5830 5821 5818 5820 5812 5801 5801 5797 5796 5796 5795 5792 5790 5788 5787 5786 5787 5787 5789 5787 5786 5786 5785 5784 5783 5781 5778 5778 5777 5776 5776 5777 5777 5776 5775 5774 5772 5772 5772 5770 5771 5772 5772 5770
5834 5833 5834 5834 5836 5831 5824 5820 5816 5813 5809 5813 5809 5804 5799 5794 5793 5791 5789 5788 5788 5787 5787 5788 5788 5785 5783 5784 5784 5783 5782 5781 5780 5778 5777 5778 5778 5777 5777 5776 5776 5775 5775 5773 5774 5773 5772 5771 5771
5833 5832 5836 5837 5836 5832 5827 5819 5815 5813 5817 5817 5811 5805 5800 5798 5795 5795 5794 5792 5790 5787 5787 5787 5786 5784 5782 5781 5782 5783 5782 5782 5781 5778 5777 5777 5779 5778 5778 5775 5775 5776 5776 5775 5773 5773 5772 5771 5771
5837 5837 5836 5836 5833 5830 5822 5819 5817 5813 5819 5814 5809 5805 5803 5800 5798 5795 5793 5791 5789 5788 5788 5788 5786 5784 5782 5781 5781 5781 5782 5780 5781 5780 5778 5777 5778 5778 5778 5777 5776 5776 5776 5775 5773 5773 5772 5772 5771
5843 5834 5832 5833 5832 5829 5826 5812 5814 5819 5820 5812 5809 5806 5804 5802 5800 5797 5795 5793 5793 5791 5790 5788 5787 5785 5784 5783 5783 5783 5782 5783 5782 5780 5778 5778 5778 5777 5778 5778 5777 5776 5776 5775 5774 5773 5774 5773 5772
5839 5833 5823 5829 5832 5830 5822 5805 5817 5825 5819 5812 5810 5808 5804 5803 5803 5802 5801 5797 5796 5794 5791 5790 5791 5787 5784 5783 5782 5784 5784 5783 5783 5782 5780 5779 5778 5778 5778 5779 5778 5776 5776 5776 5775 5775 5773 5772 5772
5830 5823 5821 5824 5833 5831 5823 5813 5821 5827 5822 5815 5813 5811 5808 5806 5805 5805 5804 5801 5799 5796 5793 5790 5790 5787 5786 5784 5783 5784 5783 5782 5783 5783 5782 5781 5779 5779 5779 5779 5777 5777 5777 5777 5777 5775 5774 5771 5771
5821 5823 5821 5822 5831 5829 5823 5822 5826 5827 5825 5820 5818 5815 5811 5809 5808 5808 5807 5805 5801 5798 5795 5792 5790 5787 5786 5786 5784 5784 5784 5784 5783 5783 5782 5781 5781 5780 5780 5780 5778 5778 5778 5776 5775 5772 5772 5771 5771
5832 5826 5823 5825 5835 5829 5823 5823 5828 5829 5826 5823 5821 5819 5816 5814 5815 5813 5810 5808 5804 5799 5795 5793 5790 5788 5786 5786 5784 5783 5783 5783 5784 5784 5782 5781 5781 5780 5779 5781 5778 5778 5777 5775 5776 5774 5773 5772 5772
5830 5824 5824 5827 5834 5829 5825 5825 5833 5833 5829 5829 5826 5823 5820 5818 5816 5813 5811 5809 5806 5801 5797 5794 5791 5790 5788 5787 5785 5785 5784 5784 5785 5784 5782 5781 5781 5780 5782 5779 5780 5778 5776 5774 5774 5772 5773 5773 5772
5827 5825 5824 5823 5828 5833 5826 5822 5828 5834 5835 5834 5833 5832 5830 5825 5820 5816 5813 5811 5809 5804 5801 5799 5795 5793 5791 5790 5789 5787 5784 5784 5784 5783 5782 5782 5781 5781 5780 5779 5779 5778 5778 5776 5774 5772 5770 5769 5771
5820 5831 5830 5826 5822 5822 5824 5811 5825 5832 5830 5831 5833 5835 5834 5832 5828 5824 5819 5814 5812 5809 5807 5802 5798 5795 5793 5791 5789 5786 5783 5781 5783 5783 5783 5782 5782 5781 5780 5779 5777 5777 5778 5776 5775 5774 5772 5769 5769
5826 5834 5831 5829 5825 5822 5825 5817 5826 5834 5828 5833 5838 5839 5840 5838 5834 5829 5825 5820 5817 5814 5810 5805 5801 5797 5794 5792 5790 5787 5786 5785 5786 5785 5782 5781 5782 5780 5780 5778 5776 5776 5776 5775 5774 5772 5771 5772 5769
5833 5829 5828 5829 5827 5806 5818 5815 5817 5834 5834 5839 5843 5843 5843 5842 5839 5834 5831 5825 5820 5817 5813 5809 5802 5798 5796 5793 5792 5788 5786 5785 5783 5782 5781 5781 5781 5780 5779 5778 5776 5775 5775 5774 5773 5772 5771 5770 5768
5827 5817 5803 5801 5802 5805 5823 5816 5821 5841 5847 5846 5845 5845 5845 5844 5840 5835 5830 5825 5821 5817 5814 5811 5804 5799 5797 5795 5793 5791 5788 5786 5783 5782 5782 5781 5781 5780 5778 5778 5775 5775 5774 5773 5772 5770 5770 5769 5766
5822 5822 5801 5789 5794 5810 5818 5814 5833 5848 5851 5852 5852 5850 5847 5844 5842 5837 5833 5828 5824 5820 5816 5812 5806 5801 5799 5796 5793 5792 5790 5789 5788 5785 5784 5783 5782 5781 5779 5776 5775 5774 5773 5773 5771 5771 5770 5768 5766
5816 5819 5831 5817 5809 5804 5814 5822 5836 5847 5845 5846 5847 5847 5845 5844 5842 5838 5835 5831 5827 5822 5818 5814 5808 5803 5800 5798 5795 5792 5791 5789 5788 5786 5784 5784 5782 5781 5778 5776 5775 5773 5772 5771 5769 5769 5767 5766 5765
5825 5825 5818 5811 5788 5787 5802 5810 5821 5830 5835 5840 5841 5843 5843 5843 5842 5839 5836 5832 5829 5825 5821 5816 5811 5805 5802 5799 5797 5795 5792 5791 5789 5787 5784 5782 5781 5779 5777 5775 5774 5772 5771 5770 5768 5767 5766 5764 5763
5810 5812 5811 5812 5809 5792 5788 5808 5835 5833 5836 5839 5842 5844 5843 5842 5841 5838 5835 5833 5829 5826 5822 5816 5811 5806 5803 5800 5797 5795 5793 5791 5789 5787 5785 5783 5780 5778 5776 5774 5772 5771 5770 5768 5766 5766 5764 5762 5762
5818 5815 5811 5796 5792 5798 5797 5808 5840 5840 5843 5842 5842 5843 5843 5842 5841 5838 5834 5830 5826 5823 5820 5815 5812 5808 5805 5802 5798 5794 5792 5790 5788 5786 5784 5782 5779 5777 5775 5773 5771 5770 5769 5767 5765 5763 5763 5761 5759